{"data":{"norad_id":58934,"epoch":"2026-09-20T21:40:28.268544Z","epoch_age_seconds":120862,"freshness":"FRESH","line1":"1 58934U 24027D   26263.90310496  .00000376  00000+0  22262-4 0  9998","line2":"2 58934  53.1601 121.6579 0001132  93.3685 266.7448 15.34401544147234","mean_motion":15.34401544,"eccentricity":0.0001132,"inclination_deg":53.1601,"raan_deg":121.6579,"arg_perigee_deg":93.3685,"mean_anomaly_deg":266.7448,"bstar":2.2262e-5,"rev_number":14723,"period_min":93.847663646512,"perigee_km":461.92426852186,"apogee_km":463.47303371328,"semimajor_km":6840.8356511176,"source":"CELESTRAK","updated_at":"2026-09-21T09:00:33.996390Z"}}